Year,Month,Day,Hour,Minute,Value (Times are PST for windgust in km/hr)
2012,01,25,00,00,11.30
2012,01,25,00,01,16.10
2012,01,25,00,02,19.30
2012,01,25,00,03,11.30
2012,01,25,00,04,17.70
2012,01,25,00,05,9.60
2012,01,25,00,06,9.60
2012,01,25,00,07,14.50
2012,01,25,00,08,19.30
2012,01,25,00,09,16.10
2012,01,25,00,10,9.60
2012,01,25,00,11,8.10
2012,01,25,00,12,8.10
2012,01,25,00,17,6.40
2012,01,25,00,18,8.10
2012,01,25,00,19,16.10
2012,01,25,00,20,6.40
2012,01,25,00,21,9.60
2012,01,25,00,22,14.50
2012,01,25,00,23,16.10
2012,01,25,00,24,14.50
2012,01,25,00,25,9.60
2012,01,25,00,26,14.50
2012,01,25,00,27,11.30
2012,01,25,00,28,9.60
2012,01,25,00,29,17.70
2012,01,25,00,30,20.90
2012,01,25,00,31,19.30
2012,01,25,00,32,17.70
2012,01,25,00,33,11.30
2012,01,25,00,34,16.10
2012,01,25,00,35,25.70
2012,01,25,00,36,9.60
2012,01,25,00,37,27.40
2012,01,25,00,38,27.40
2012,01,25,00,39,32.20
2012,01,25,00,40,32.20
2012,01,25,00,41,25.70
2012,01,25,00,42,27.40
2012,01,25,00,43,24.20
2012,01,25,00,44,25.70
2012,01,25,00,45,33.80
2012,01,25,00,46,20.90
2012,01,25,00,47,25.70
2012,01,25,00,48,25.70
2012,01,25,00,49,19.30
2012,01,25,00,50,11.30
2012,01,25,00,51,25.70
2012,01,25,00,52,25.70
2012,01,25,00,53,20.90
2012,01,25,00,54,24.20
2012,01,25,00,55,20.90
2012,01,25,00,56,17.70
2012,01,25,00,57,16.10
2012,01,25,00,58,17.70
2012,01,25,00,59,14.50
2012,01,25,01,00,14.50
2012,01,25,01,01,9.60
2012,01,25,01,02,6.40
2012,01,25,01,03,14.50
2012,01,25,01,04,20.90
2012,01,25,01,05,22.50
2012,01,25,01,06,22.50
2012,01,25,01,07,22.50
2012,01,25,01,08,20.90
2012,01,25,01,09,20.90
2012,01,25,01,10,14.50
2012,01,25,01,11,24.20
2012,01,25,01,12,16.10
2012,01,25,01,13,19.30
2012,01,25,01,14,30.60
2012,01,25,01,15,16.10
2012,01,25,01,16,17.70
2012,01,25,01,17,22.50
2012,01,25,01,18,35.40
2012,01,25,01,19,19.30
2012,01,25,01,20,20.90
2012,01,25,01,21,22.50
2012,01,25,01,22,20.90
2012,01,25,01,23,12.90
2012,01,25,01,24,8.10
2012,01,25,01,25,14.50
2012,01,25,01,26,12.90
2012,01,25,01,27,16.10
2012,01,25,01,28,14.50
2012,01,25,01,29,11.30
2012,01,25,01,30,11.30
2012,01,25,01,31,25.70
2012,01,25,01,32,12.90
2012,01,25,01,33,17.70
2012,01,25,01,34,11.30
2012,01,25,01,35,11.30
2012,01,25,01,36,16.10
2012,01,25,01,37,14.50
2012,01,25,01,38,11.30
2012,01,25,01,39,12.90
2012,01,25,01,40,20.90
2012,01,25,01,41,14.50
2012,01,25,01,42,20.90
2012,01,25,01,43,16.10
2012,01,25,01,44,20.90
2012,01,25,01,45,9.60
2012,01,25,01,46,17.70
2012,01,25,01,47,12.90
2012,01,25,01,48,14.50
2012,01,25,01,49,20.90
2012,01,25,01,50,8.10
2012,01,25,01,51,8.10
2012,01,25,01,52,11.30
2012,01,25,01,53,12.90
2012,01,25,01,54,9.60
2012,01,25,01,55,29.00
2012,01,25,01,56,19.30
2012,01,25,01,57,14.50
2012,01,25,01,58,16.10
2012,01,25,01,59,14.50
2012,01,25,02,00,19.30
2012,01,25,02,01,19.30
2012,01,25,02,02,19.30
2012,01,25,02,03,17.70
2012,01,25,02,04,11.30
2012,01,25,02,05,16.10
2012,01,25,02,06,11.30
2012,01,25,02,07,19.30
2012,01,25,02,08,16.10
2012,01,25,02,09,20.90
2012,01,25,02,10,17.70
2012,01,25,02,11,22.50
2012,01,25,02,12,32.20
2012,01,25,02,13,4.80
2012,01,25,02,14,17.70
2012,01,25,02,15,16.10
2012,01,25,02,16,11.30
2012,01,25,02,17,8.10
2012,01,25,02,18,4.80
2012,01,25,02,19,9.60
2012,01,25,02,20,14.50
2012,01,25,02,21,14.50
2012,01,25,02,22,24.20
2012,01,25,02,23,19.30
2012,01,25,02,24,11.30
2012,01,25,02,25,9.60
2012,01,25,02,26,19.30
2012,01,25,02,27,9.60
2012,01,25,02,28,16.10
2012,01,25,02,29,27.40
2012,01,25,02,30,20.90
2012,01,25,02,31,12.90
2012,01,25,02,32,11.30
2012,01,25,02,33,22.50
2012,01,25,02,34,22.50
2012,01,25,02,35,17.70
2012,01,25,02,36,20.90
2012,01,25,02,37,16.10
2012,01,25,02,38,20.90
2012,01,25,02,39,11.30
2012,01,25,02,40,14.50
2012,01,25,02,41,8.10
2012,01,25,02,42,16.10
2012,01,25,02,43,19.30
2012,01,25,02,44,14.50
2012,01,25,02,45,17.70
2012,01,25,02,46,11.30
2012,01,25,02,47,11.30
2012,01,25,02,48,6.40
2012,01,25,02,49,11.30
2012,01,25,02,50,14.50
2012,01,25,02,51,25.70
2012,01,25,02,52,24.20
2012,01,25,02,53,12.90
2012,01,25,02,54,11.30
2012,01,25,02,55,30.60
2012,01,25,02,56,25.70
2012,01,25,02,57,32.20
2012,01,25,02,58,24.20
2012,01,25,02,59,22.50
2012,01,25,03,00,17.70
2012,01,25,03,01,14.50
2012,01,25,03,02,27.40
2012,01,25,03,03,29.00
2012,01,25,03,04,37.00
2012,01,25,03,05,14.50
2012,01,25,03,06,16.10
2012,01,25,03,07,32.20
2012,01,25,03,08,24.20
2012,01,25,03,09,22.50
2012,01,25,03,10,24.20
2012,01,25,03,11,12.90
2012,01,25,03,12,29.00
2012,01,25,03,13,19.30
2012,01,25,03,14,9.60
2012,01,25,03,15,11.30
2012,01,25,03,16,8.10
2012,01,25,03,17,8.10
2012,01,25,03,18,9.60
2012,01,25,03,19,11.30
2012,01,25,03,20,8.10
2012,01,25,03,21,8.10
2012,01,25,03,22,3.20
2012,01,25,03,23,6.40
2012,01,25,03,24,3.20
2012,01,25,03,25,6.40
2012,01,25,03,26,6.40
2012,01,25,03,27,3.20
2012,01,25,03,28,3.20
2012,01,25,03,29,3.20
2012,01,25,03,30,6.40
2012,01,25,03,31,6.40
2012,01,25,03,32,4.80
2012,01,25,03,33,3.20
2012,01,25,03,34,3.20
2012,01,25,03,35,6.40
2012,01,25,03,36,3.20
2012,01,25,03,37,4.80
2012,01,25,03,38,3.20
2012,01,25,03,39,6.40
2012,01,25,03,40,3.20
2012,01,25,03,41,4.80
2012,01,25,03,43,3.20
2012,01,25,03,44,3.20
2012,01,25,03,45,4.80
2012,01,25,03,46,3.20
2012,01,25,03,47,4.80
2012,01,25,03,48,4.80
2012,01,25,03,49,1.60
2012,01,25,03,50,1.60
2012,01,25,03,51,4.80
2012,01,25,03,52,3.20
2012,01,25,03,53,1.60
2012,01,25,03,54,3.20
2012,01,25,03,56,1.60
2012,01,25,03,58,3.20
2012,01,25,03,59,8.10
2012,01,25,04,00,8.10
2012,01,25,04,01,3.20
2012,01,25,04,02,4.80
2012,01,25,04,03,3.20
2012,01,25,04,04,4.80
2012,01,25,04,05,3.20
2012,01,25,04,06,1.60
2012,01,25,04,07,4.80
2012,01,25,04,08,3.20
2012,01,25,04,09,3.20
2012,01,25,04,10,3.20
2012,01,25,04,11,3.20
2012,01,25,04,12,3.20
2012,01,25,04,13,3.20
2012,01,25,04,14,3.20
2012,01,25,04,15,1.60
2012,01,25,04,16,3.20
2012,01,25,04,17,4.80
2012,01,25,04,18,3.20
2012,01,25,04,19,4.80
2012,01,25,04,20,4.80
2012,01,25,04,21,4.80
2012,01,25,04,22,4.80
2012,01,25,04,23,3.20
2012,01,25,04,24,4.80
2012,01,25,04,25,4.80
2012,01,25,04,26,4.80
2012,01,25,04,27,4.80
2012,01,25,04,28,4.80
2012,01,25,04,29,9.60
2012,01,25,04,30,4.80
2012,01,25,04,31,1.60
2012,01,25,04,32,3.20
2012,01,25,04,33,4.80
2012,01,25,04,34,3.20
2012,01,25,04,35,1.60
2012,01,25,04,36,1.60
2012,01,25,04,37,4.80
2012,01,25,04,38,6.40
2012,01,25,04,39,3.20
2012,01,25,04,40,3.20
2012,01,25,04,41,6.40
2012,01,25,04,42,4.80
2012,01,25,04,43,3.20
2012,01,25,04,44,3.20
2012,01,25,04,45,3.20
2012,01,25,04,46,1.60
2012,01,25,04,47,1.60
2012,01,25,04,48,4.80
2012,01,25,04,49,6.40
2012,01,25,04,50,3.20
2012,01,25,04,51,6.40
2012,01,25,04,52,6.40
2012,01,25,04,53,6.40
2012,01,25,04,54,3.20
2012,01,25,04,55,8.10
2012,01,25,04,56,9.60
2012,01,25,04,57,1.60
2012,01,25,04,58,4.80
2012,01,25,04,59,6.40
2012,01,25,05,00,3.20
2012,01,25,05,01,6.40
2012,01,25,05,02,4.80
2012,01,25,05,03,3.20
2012,01,25,05,04,6.40
2012,01,25,05,05,6.40
2012,01,25,05,06,3.20
2012,01,25,05,07,1.60
2012,01,25,05,08,1.60
2012,01,25,05,09,3.20
2012,01,25,05,10,3.20
2012,01,25,05,11,6.40
2012,01,25,05,12,4.80
2012,01,25,05,13,3.20
2012,01,25,05,14,1.60
2012,01,25,05,16,1.60
2012,01,25,05,17,3.20
2012,01,25,05,18,3.20
2012,01,25,05,19,1.60
2012,01,25,05,20,1.60
2012,01,25,05,21,1.60
2012,01,25,05,22,1.60
2012,01,25,05,23,8.10
2012,01,25,05,24,6.40
2012,01,25,05,25,6.40
2012,01,25,05,26,8.10
2012,01,25,05,27,8.10
2012,01,25,05,28,14.50
2012,01,25,05,29,4.80
2012,01,25,05,30,6.40
2012,01,25,05,31,6.40
2012,01,25,05,32,8.10
2012,01,25,05,33,12.90
2012,01,25,05,34,19.30
2012,01,25,05,35,8.10
2012,01,25,05,36,11.30
2012,01,25,05,37,9.60
2012,01,25,05,38,14.50
2012,01,25,05,39,8.10
2012,01,25,05,40,16.10
2012,01,25,05,41,8.10
2012,01,25,05,42,8.10
2012,01,25,05,43,6.40
2012,01,25,05,44,8.10
2012,01,25,05,45,8.10
2012,01,25,05,46,3.20
2012,01,25,05,47,4.80
2012,01,25,05,48,8.10
2012,01,25,05,49,6.40
2012,01,25,05,50,6.40
2012,01,25,05,51,8.10
2012,01,25,05,52,8.10
2012,01,25,05,53,11.30
2012,01,25,05,54,9.60
2012,01,25,05,55,4.80
2012,01,25,05,56,4.80
2012,01,25,05,57,14.50
2012,01,25,05,58,14.50
2012,01,25,05,59,6.40
2012,01,25,06,01,3.20
2012,01,25,06,02,3.20
2012,01,25,06,03,3.20
2012,01,25,06,04,1.60
2012,01,25,06,05,3.20
2012,01,25,06,06,3.20
2012,01,25,06,07,1.60
2012,01,25,06,08,6.40
2012,01,25,06,09,4.80
2012,01,25,06,10,4.80
2012,01,25,06,11,11.30
2012,01,25,06,12,6.40
2012,01,25,06,13,6.40
2012,01,25,06,14,11.30
2012,01,25,06,15,8.10
2012,01,25,06,16,8.10
2012,01,25,06,17,8.10
2012,01,25,06,18,1.60
2012,01,25,06,19,3.20
2012,01,25,06,20,6.40
2012,01,25,06,21,4.80
2012,01,25,06,23,1.60
2012,01,25,06,24,1.60
2012,01,25,06,25,9.60
2012,01,25,06,26,8.10
2012,01,25,06,27,8.10
2012,01,25,06,28,3.20
2012,01,25,06,29,4.80
2012,01,25,06,30,4.80
2012,01,25,06,31,3.20
2012,01,25,06,32,4.80
2012,01,25,06,33,1.60
2012,01,25,06,34,1.60
2012,01,25,06,35,3.20
2012,01,25,06,36,1.60
2012,01,25,06,37,9.60
2012,01,25,06,38,3.20
2012,01,25,06,39,3.20
2012,01,25,06,40,6.40
2012,01,25,06,41,6.40
2012,01,25,06,42,3.20
2012,01,25,06,43,8.10
2012,01,25,06,44,16.10
2012,01,25,06,45,8.10
2012,01,25,06,46,4.80
2012,01,25,06,47,6.40
2012,01,25,06,48,6.40
2012,01,25,06,49,6.40
2012,01,25,06,50,11.30
2012,01,25,06,51,14.50
2012,01,25,06,52,12.90
2012,01,25,06,53,14.50
2012,01,25,06,54,11.30
2012,01,25,06,55,6.40
2012,01,25,06,56,8.10
2012,01,25,06,57,16.10
2012,01,25,06,58,8.10
2012,01,25,06,59,8.10
2012,01,25,07,00,14.50
2012,01,25,07,01,12.90
2012,01,25,07,02,4.80
2012,01,25,07,03,9.60
2012,01,25,07,04,6.40
2012,01,25,07,05,4.80
2012,01,25,07,06,6.40
2012,01,25,07,07,6.40
2012,01,25,07,08,4.80
2012,01,25,07,09,9.60
2012,01,25,07,10,8.10
2012,01,25,07,11,8.10
2012,01,25,07,12,11.30
2012,01,25,07,13,3.20
2012,01,25,07,14,4.80
2012,01,25,07,15,16.10
2012,01,25,07,16,14.50
2012,01,25,07,17,8.10
2012,01,25,07,18,3.20
2012,01,25,07,19,3.20
2012,01,25,07,20,4.80
2012,01,25,07,21,8.10
2012,01,25,07,22,11.30
2012,01,25,07,23,8.10
2012,01,25,07,24,4.80
2012,01,25,07,25,1.60
2012,01,25,07,26,1.60
2012,01,25,07,27,1.60
2012,01,25,07,28,3.20
2012,01,25,07,29,1.60
2012,01,25,07,30,9.60
2012,01,25,07,31,9.60
2012,01,25,07,32,8.10
2012,01,25,07,33,6.40
2012,01,25,07,34,6.40
2012,01,25,07,35,8.10
2012,01,25,07,36,4.80
2012,01,25,07,37,4.80
2012,01,25,07,38,1.60
2012,01,25,07,39,6.40
2012,01,25,07,40,6.40
2012,01,25,07,41,3.20
2012,01,25,07,42,4.80
2012,01,25,07,43,3.20
2012,01,25,07,44,3.20
2012,01,25,07,46,1.60
2012,01,25,07,47,3.20
2012,01,25,07,48,4.80
2012,01,25,07,49,6.40
2012,01,25,07,50,6.40
2012,01,25,07,51,4.80
2012,01,25,07,52,9.60
2012,01,25,07,53,8.10
2012,01,25,07,54,4.80
2012,01,25,07,55,4.80
2012,01,25,07,56,6.40
2012,01,25,07,57,6.40
2012,01,25,07,58,4.80
2012,01,25,07,59,3.20
2012,01,25,08,00,6.40
2012,01,25,08,01,8.10
2012,01,25,08,02,6.40
2012,01,25,08,03,4.80
2012,01,25,08,04,3.20
2012,01,25,08,05,3.20
2012,01,25,08,06,8.10
2012,01,25,08,07,6.40
2012,01,25,08,08,6.40
2012,01,25,08,09,1.60
2012,01,25,08,10,3.20
2012,01,25,08,11,6.40
2012,01,25,08,12,6.40
2012,01,25,08,13,6.40
2012,01,25,08,14,4.80
2012,01,25,08,15,6.40
2012,01,25,08,16,6.40
2012,01,25,08,17,17.70
2012,01,25,08,18,8.10
2012,01,25,08,19,6.40
2012,01,25,08,20,9.60
2012,01,25,08,21,8.10
2012,01,25,08,22,6.40
2012,01,25,08,23,11.30
2012,01,25,08,24,16.10
2012,01,25,08,25,19.30
2012,01,25,08,26,6.40
2012,01,25,08,27,16.10
2012,01,25,08,28,16.10
2012,01,25,08,29,20.90
2012,01,25,08,30,6.40
2012,01,25,08,31,3.20
2012,01,25,08,32,9.60
2012,01,25,08,33,9.60
2012,01,25,08,34,8.10
2012,01,25,08,35,6.40
2012,01,25,08,36,4.80
2012,01,25,08,37,4.80
2012,01,25,08,38,4.80
2012,01,25,08,39,6.40
2012,01,25,08,40,4.80
2012,01,25,08,41,3.20
2012,01,25,08,42,6.40
2012,01,25,08,43,4.80
2012,01,25,08,44,1.60
2012,01,25,08,45,3.20
2012,01,25,08,46,3.20
2012,01,25,08,47,1.60
2012,01,25,08,50,1.60
2012,01,25,08,51,3.20
2012,01,25,08,52,3.20
2012,01,25,08,53,3.20
2012,01,25,08,54,3.20
2012,01,25,08,55,1.60
2012,01,25,08,59,1.60
2012,01,25,09,02,3.20
2012,01,25,09,03,3.20
2012,01,25,09,04,3.20
2012,01,25,09,05,3.20
2012,01,25,09,06,6.40
2012,01,25,09,07,4.80
2012,01,25,09,08,4.80
2012,01,25,09,09,4.80
2012,01,25,09,10,1.60
2012,01,25,09,11,1.60
2012,01,25,09,17,1.60
2012,01,25,09,18,1.60
2012,01,25,09,19,1.60
2012,01,25,09,24,1.60
2012,01,25,09,25,1.60
2012,01,25,09,26,3.20
2012,01,25,09,27,8.10
2012,01,25,09,28,6.40
2012,01,25,09,29,8.10
2012,01,25,09,30,11.30
2012,01,25,09,31,11.30
2012,01,25,09,32,11.30
2012,01,25,09,33,14.50
2012,01,25,09,34,9.60
2012,01,25,09,35,11.30
2012,01,25,09,36,4.80
2012,01,25,09,37,3.20
2012,01,25,09,38,4.80
2012,01,25,09,39,3.20
2012,01,25,09,40,6.40
2012,01,25,09,41,4.80
2012,01,25,09,42,6.40
2012,01,25,09,43,6.40
2012,01,25,09,44,11.30
2012,01,25,09,45,14.50
2012,01,25,09,46,4.80
2012,01,25,09,47,9.60
2012,01,25,09,48,9.60
2012,01,25,09,49,8.10
2012,01,25,09,50,8.10
2012,01,25,09,51,9.60
2012,01,25,09,52,8.10
2012,01,25,09,53,9.60
2012,01,25,09,54,11.30
2012,01,25,09,55,3.20
2012,01,25,09,56,6.40
2012,01,25,09,57,6.40
2012,01,25,09,58,8.10
2012,01,25,09,59,6.40
2012,01,25,10,00,8.10
2012,01,25,10,01,4.80
2012,01,25,10,02,6.40
2012,01,25,10,03,4.80
2012,01,25,10,04,6.40
2012,01,25,10,05,3.20
2012,01,25,10,06,3.20
2012,01,25,10,07,3.20
2012,01,25,10,08,4.80
2012,01,25,10,09,3.20
2012,01,25,10,10,3.20
2012,01,25,10,11,3.20
2012,01,25,10,12,3.20
2012,01,25,10,13,3.20
2012,01,25,10,14,6.40
2012,01,25,10,15,3.20
2012,01,25,10,16,4.80
2012,01,25,10,17,3.20
2012,01,25,10,18,3.20
2012,01,25,10,19,3.20
2012,01,25,10,20,4.80
2012,01,25,10,21,4.80
2012,01,25,10,22,4.80
2012,01,25,10,23,4.80
2012,01,25,10,24,3.20
2012,01,25,10,28,1.60
2012,01,25,10,32,1.60
2012,01,25,10,33,3.20
2012,01,25,10,34,3.20
2012,01,25,10,35,3.20
2012,01,25,10,36,4.80
2012,01,25,10,37,3.20
2012,01,25,10,38,4.80
2012,01,25,10,39,4.80
2012,01,25,10,40,4.80
2012,01,25,10,41,3.20
2012,01,25,10,42,1.60
2012,01,25,10,43,4.80
2012,01,25,10,44,3.20
2012,01,25,10,45,4.80
2012,01,25,10,46,1.60
2012,01,25,10,47,3.20
2012,01,25,10,48,3.20
2012,01,25,10,49,9.60
2012,01,25,10,50,14.50
2012,01,25,10,51,9.60
2012,01,25,10,52,9.60
2012,01,25,10,53,6.40
2012,01,25,10,54,6.40
2012,01,25,10,55,6.40
2012,01,25,10,56,8.10
2012,01,25,10,57,8.10
2012,01,25,10,58,9.60
2012,01,25,10,59,9.60
2012,01,25,11,00,8.10
2012,01,25,11,01,3.20
2012,01,25,11,02,3.20
2012,01,25,11,03,3.20
2012,01,25,11,04,3.20
2012,01,25,11,05,3.20
2012,01,25,11,06,3.20
2012,01,25,11,07,4.80
2012,01,25,11,08,3.20
2012,01,25,11,10,1.60
2012,01,25,11,11,1.60
2012,01,25,11,12,1.60
2012,01,25,11,13,1.60
2012,01,25,11,14,3.20
2012,01,25,11,15,4.80
2012,01,25,11,16,1.60
2012,01,25,11,17,1.60
2012,01,25,11,18,4.80
2012,01,25,11,19,4.80
2012,01,25,11,20,1.60
2012,01,25,11,21,1.60
2012,01,25,11,22,4.80
2012,01,25,11,23,4.80
2012,01,25,11,24,6.40
2012,01,25,11,25,3.20
2012,01,25,11,26,6.40
2012,01,25,11,27,4.80
2012,01,25,11,28,3.20
2012,01,25,11,29,4.80
2012,01,25,11,30,6.40
2012,01,25,11,31,4.80
2012,01,25,11,32,4.80
2012,01,25,11,33,8.10
2012,01,25,11,34,4.80
2012,01,25,11,35,4.80
2012,01,25,11,36,8.10
2012,01,25,11,37,4.80
2012,01,25,11,38,4.80
2012,01,25,11,39,8.10
2012,01,25,11,40,16.10
2012,01,25,11,41,8.10
2012,01,25,11,42,9.60
2012,01,25,11,43,4.80
2012,01,25,11,44,4.80
2012,01,25,11,45,3.20
2012,01,25,11,46,4.80
2012,01,25,11,47,4.80
2012,01,25,11,48,6.40
2012,01,25,11,49,11.30
2012,01,25,11,50,6.40
2012,01,25,11,51,4.80
2012,01,25,11,52,6.40
2012,01,25,11,53,8.10
2012,01,25,11,54,4.80
2012,01,25,11,55,3.20
2012,01,25,11,56,4.80
2012,01,25,11,57,4.80
2012,01,25,11,58,4.80
2012,01,25,11,59,3.20
2012,01,25,12,00,4.80
2012,01,25,12,01,1.60
2012,01,25,12,02,8.10
2012,01,25,12,03,6.40
2012,01,25,12,04,6.40
2012,01,25,12,05,9.60
2012,01,25,12,06,6.40
2012,01,25,12,07,3.20
2012,01,25,12,08,4.80
2012,01,25,12,09,6.40
2012,01,25,12,10,1.60
2012,01,25,12,11,1.60
2012,01,25,12,12,6.40
2012,01,25,12,13,6.40
2012,01,25,12,14,8.10
2012,01,25,12,15,6.40
2012,01,25,12,16,4.80
2012,01,25,12,17,6.40
2012,01,25,12,18,8.10
2012,01,25,12,19,6.40
2012,01,25,12,20,8.10
2012,01,25,12,21,8.10
2012,01,25,12,22,4.80
2012,01,25,12,23,8.10
2012,01,25,12,24,6.40
2012,01,25,12,25,3.20
2012,01,25,12,26,4.80
2012,01,25,12,27,6.40
2012,01,25,12,28,3.20
2012,01,25,12,29,6.40
2012,01,25,12,30,3.20
2012,01,25,12,31,6.40
2012,01,25,12,32,4.80
2012,01,25,12,33,11.30
2012,01,25,12,34,9.60
2012,01,25,12,35,11.30
2012,01,25,12,36,8.10
2012,01,25,12,37,16.10
2012,01,25,12,38,16.10
2012,01,25,12,39,6.40
2012,01,25,12,40,4.80
2012,01,25,12,41,8.10
2012,01,25,12,42,14.50
2012,01,25,12,43,11.30
2012,01,25,12,44,14.50
2012,01,25,12,45,9.60
2012,01,25,12,46,3.20
2012,01,25,12,47,4.80
2012,01,25,12,48,8.10
2012,01,25,12,49,17.70
2012,01,25,12,50,9.60
2012,01,25,12,51,9.60
2012,01,25,12,52,6.40
2012,01,25,12,53,9.60
2012,01,25,12,54,8.10
2012,01,25,12,55,11.30
2012,01,25,12,56,9.60
2012,01,25,12,57,8.10
2012,01,25,12,58,9.60
2012,01,25,12,59,6.40
2012,01,25,13,00,16.10
2012,01,25,13,01,11.30
2012,01,25,13,02,6.40
2012,01,25,13,03,9.60
2012,01,25,13,04,6.40
2012,01,25,13,05,8.10
2012,01,25,13,06,14.50
2012,01,25,13,07,16.10
2012,01,25,13,08,4.80
2012,01,25,13,09,11.30
2012,01,25,13,10,11.30
2012,01,25,13,11,11.30
2012,01,25,13,12,9.60
2012,01,25,13,13,9.60
2012,01,25,13,14,11.30
2012,01,25,13,15,16.10
2012,01,25,13,16,8.10
2012,01,25,13,17,9.60
2012,01,25,13,18,14.50
2012,01,25,13,19,4.80
2012,01,25,13,20,8.10
2012,01,25,13,21,12.90
2012,01,25,13,22,12.90
2012,01,25,13,23,11.30
2012,01,25,13,24,11.30
2012,01,25,13,25,8.10
2012,01,25,13,26,6.40
2012,01,25,13,27,9.60
2012,01,25,13,28,16.10
2012,01,25,13,29,8.10
2012,01,25,13,30,8.10
2012,01,25,13,31,8.10
2012,01,25,13,32,17.70
2012,01,25,13,33,9.60
2012,01,25,13,34,8.10
2012,01,25,13,35,9.60
2012,01,25,13,36,8.10
2012,01,25,13,37,9.60
2012,01,25,13,38,9.60
2012,01,25,13,39,17.70
2012,01,25,13,40,16.10
2012,01,25,13,41,8.10
2012,01,25,13,42,9.60
2012,01,25,13,43,17.70
2012,01,25,13,44,11.30
2012,01,25,13,45,6.40
2012,01,25,13,46,6.40
2012,01,25,13,47,6.40
2012,01,25,13,48,6.40
2012,01,25,13,49,9.60
2012,01,25,13,50,6.40
2012,01,25,13,51,11.30
2012,01,25,13,52,8.10
2012,01,25,13,53,17.70
2012,01,25,13,54,6.40
2012,01,25,13,55,4.80
2012,01,25,13,56,11.30
2012,01,25,13,57,16.10
2012,01,25,13,58,4.80
2012,01,25,13,59,3.20
2012,01,25,14,00,11.30
2012,01,25,14,01,17.70
2012,01,25,14,02,12.90
2012,01,25,14,03,9.60
2012,01,25,14,04,4.80
2012,01,25,14,05,11.30
2012,01,25,14,06,6.40
2012,01,25,14,07,12.90
2012,01,25,14,08,11.30
2012,01,25,14,09,11.30
2012,01,25,14,10,6.40
2012,01,25,14,11,3.20
2012,01,25,14,12,6.40
2012,01,25,14,13,9.60
2012,01,25,14,14,6.40
2012,01,25,14,15,6.40
2012,01,25,14,16,17.70
2012,01,25,14,17,14.50
2012,01,25,14,18,8.10
2012,01,25,14,19,11.30
2012,01,25,14,20,6.40
2012,01,25,14,21,8.10
2012,01,25,14,22,3.20
2012,01,25,14,23,9.60
2012,01,25,14,24,11.30
2012,01,25,14,25,11.30
2012,01,25,14,26,3.20
2012,01,25,14,27,11.30
2012,01,25,14,28,4.80
2012,01,25,14,29,16.10
2012,01,25,14,30,11.30
2012,01,25,14,31,11.30
2012,01,25,14,32,9.60
2012,01,25,14,33,16.10
2012,01,25,14,34,4.80
2012,01,25,14,35,11.30
2012,01,25,14,36,14.50
2012,01,25,14,37,9.60
2012,01,25,14,38,9.60
2012,01,25,14,39,9.60
2012,01,25,14,40,11.30
2012,01,25,14,41,8.10
2012,01,25,14,42,14.50
2012,01,25,14,43,11.30
2012,01,25,14,44,8.10
2012,01,25,14,45,9.60
2012,01,25,14,46,8.10
2012,01,25,14,47,11.30
2012,01,25,14,48,17.70
2012,01,25,14,49,6.40
2012,01,25,14,50,11.30
2012,01,25,14,51,11.30
2012,01,25,14,52,8.10
2012,01,25,14,53,11.30
2012,01,25,14,54,6.40
2012,01,25,14,55,11.30
2012,01,25,14,56,11.30
2012,01,25,14,57,16.10
2012,01,25,14,58,9.60
2012,01,25,14,59,6.40
2012,01,25,15,00,4.80
2012,01,25,15,01,8.10
2012,01,25,15,02,6.40
2012,01,25,15,03,8.10
2012,01,25,15,04,9.60
2012,01,25,15,05,11.30
2012,01,25,15,06,16.10
2012,01,25,15,07,9.60
2012,01,25,15,08,4.80
2012,01,25,15,09,4.80
2012,01,25,15,10,9.60
2012,01,25,15,11,8.10
2012,01,25,15,12,8.10
2012,01,25,15,13,22.50
2012,01,25,15,14,20.90
2012,01,25,15,15,4.80
2012,01,25,15,16,6.40
2012,01,25,15,17,24.20
2012,01,25,15,18,20.90
2012,01,25,15,19,17.70
2012,01,25,15,20,14.50
2012,01,25,15,21,8.10
2012,01,25,15,22,8.10
2012,01,25,15,23,8.10
2012,01,25,15,24,11.30
2012,01,25,15,25,6.40
2012,01,25,15,26,8.10
2012,01,25,15,27,11.30
2012,01,25,15,28,11.30
2012,01,25,15,29,11.30
2012,01,25,15,30,9.60
2012,01,25,15,31,4.80
2012,01,25,15,32,6.40
2012,01,25,15,33,6.40
2012,01,25,15,34,8.10
2012,01,25,15,35,4.80
2012,01,25,15,36,4.80
2012,01,25,15,37,11.30
2012,01,25,15,38,22.50
2012,01,25,15,39,19.30
2012,01,25,15,40,14.50
2012,01,25,15,41,17.70
2012,01,25,15,42,17.70
2012,01,25,15,43,11.30
2012,01,25,15,44,3.20
2012,01,25,15,45,8.10
2012,01,25,15,46,6.40
2012,01,25,15,47,16.10
2012,01,25,15,48,17.70
2012,01,25,15,49,20.90
2012,01,25,15,50,11.30
2012,01,25,15,51,16.10
2012,01,25,15,52,9.60
2012,01,25,15,53,17.70
2012,01,25,15,54,14.50
2012,01,25,15,55,14.50
2012,01,25,15,56,6.40
2012,01,25,15,57,8.10
2012,01,25,15,58,8.10
2012,01,25,15,59,9.60
2012,01,25,16,00,4.80
2012,01,25,16,01,6.40
2012,01,25,16,02,3.20
2012,01,25,16,03,1.60
2012,01,25,16,04,1.60
2012,01,25,16,05,3.20
2012,01,25,16,06,1.60
2012,01,25,16,16,1.60
2012,01,25,16,21,1.60
2012,01,25,16,22,1.60
2012,01,25,16,32,1.60
2012,01,25,16,33,9.60
2012,01,25,16,34,14.50
2012,01,25,16,35,11.30
2012,01,25,16,36,9.60
2012,01,25,16,37,9.60
2012,01,25,16,38,3.20
2012,01,25,16,41,1.60
2012,01,25,16,44,4.80
2012,01,25,16,46,1.60
2012,01,25,16,50,1.60
2012,01,25,16,51,1.60
2012,01,25,16,52,3.20
2012,01,25,16,53,1.60
2012,01,25,16,54,3.20
2012,01,25,16,55,1.60
2012,01,25,16,57,1.60
2012,01,25,16,58,3.20
2012,01,25,16,59,1.60
2012,01,25,17,11,4.80
2012,01,25,17,12,4.80
2012,01,25,17,13,4.80
2012,01,25,17,14,1.60
2012,01,25,17,15,1.60
2012,01,25,17,16,1.60
2012,01,25,17,17,1.60
2012,01,25,17,24,1.60
2012,01,25,17,25,1.60
2012,01,25,17,27,3.20
2012,01,25,17,28,3.20
2012,01,25,17,29,3.20
2012,01,25,17,30,1.60
2012,01,25,17,31,3.20
2012,01,25,17,32,4.80
2012,01,25,17,33,9.60
2012,01,25,17,34,3.20
2012,01,25,17,35,4.80
2012,01,25,17,36,4.80
2012,01,25,17,37,4.80
2012,01,25,17,38,16.10
2012,01,25,17,39,4.80
2012,01,25,17,40,3.20
2012,01,25,17,41,1.60
2012,01,25,17,43,1.60
2012,01,25,17,46,1.60
2012,01,25,17,47,1.60
2012,01,25,17,48,3.20
2012,01,25,17,49,3.20
2012,01,25,17,50,3.20
2012,01,25,17,51,3.20
2012,01,25,17,52,1.60
2012,01,25,17,53,9.60
2012,01,25,17,54,4.80
2012,01,25,17,55,6.40
2012,01,25,17,56,9.60
2012,01,25,17,57,8.10
2012,01,25,17,58,6.40
2012,01,25,17,59,6.40
2012,01,25,18,00,6.40
2012,01,25,18,01,3.20
2012,01,25,18,02,3.20
2012,01,25,18,03,6.40
2012,01,25,18,04,6.40
2012,01,25,18,05,8.10
2012,01,25,18,06,3.20
2012,01,25,18,07,8.10
2012,01,25,18,08,8.10
2012,01,25,18,09,6.40
2012,01,25,18,10,6.40
2012,01,25,18,11,1.60
2012,01,25,18,12,4.80
2012,01,25,18,13,1.60
2012,01,25,18,14,4.80
2012,01,25,18,15,4.80
2012,01,25,18,16,3.20
2012,01,25,18,18,1.60
2012,01,25,18,19,1.60
2012,01,25,18,22,1.60
2012,01,25,18,23,1.60
2012,01,25,18,25,1.60
2012,01,25,18,27,1.60
2012,01,25,18,28,1.60
2012,01,25,18,29,1.60
2012,01,25,18,30,1.60
2012,01,25,18,31,3.20
2012,01,25,18,33,1.60
2012,01,25,18,34,3.20
2012,01,25,18,35,3.20
2012,01,25,18,36,1.60
2012,01,25,18,39,1.60
2012,01,25,18,40,3.20
2012,01,25,18,41,3.20
2012,01,25,18,42,3.20
2012,01,25,18,46,1.60
2012,01,25,18,47,1.60
2012,01,25,18,48,1.60
2012,01,25,18,50,1.60
2012,01,25,18,51,1.60
2012,01,25,18,52,1.60
2012,01,25,18,55,1.60
2012,01,25,18,56,1.60
2012,01,25,18,57,1.60
2012,01,25,18,58,1.60
2012,01,25,18,59,1.60
2012,01,25,19,00,1.60
2012,01,25,19,01,1.60
2012,01,25,19,02,1.60
2012,01,25,19,06,1.60
2012,01,25,19,07,1.60
2012,01,25,19,08,3.20
2012,01,25,19,09,1.60
2012,01,25,19,10,1.60
2012,01,25,19,11,1.60
2012,01,25,19,12,1.60
2012,01,25,19,13,3.20
2012,01,25,19,14,3.20
2012,01,25,19,15,3.20
2012,01,25,19,16,3.20
2012,01,25,19,17,3.20
2012,01,25,19,18,3.20
2012,01,25,19,19,3.20
2012,01,25,19,20,1.60
2012,01,25,19,21,1.60
2012,01,25,19,22,1.60
2012,01,25,19,23,1.60
2012,01,25,19,24,3.20
2012,01,25,19,25,1.60
2012,01,25,19,26,1.60
2012,01,25,19,27,4.80
2012,01,25,19,29,4.80
2012,01,25,19,30,3.20
2012,01,25,19,31,4.80
2012,01,25,19,32,3.20
2012,01,25,19,33,4.80
2012,01,25,19,34,4.80
2012,01,25,19,35,3.20
2012,01,25,19,36,3.20
2012,01,25,19,37,3.20